CZ-6 R/B (46841 NORAD) Tracking and Keplerian Element Data

This shows tracking and keplerian element data for the satellite.

Feedback or suggestion? Click here.




ElementValue
Catalog46841
NameCZ-6 R/B
Epoch Orbit231
Epoch Day325.83083428
Epoch Year2020
RAAN38.9498
Inclination97.2588
Eccentricity0.0167778
Argument of Perigee355.7176
Mean Anonmoly4.265
Mean Motion15.90493779
Decay Rate0.0042
L11 46841U 20079Q 20325.83083428 .00420000 22266-5 36171-3 0 9999
L22 46841 97.2588 38.9498 0167778 355.7176 4.2650 15.90493779 2312

Live tracking and technical data element details for CZ-6 R/B (NORAD 46841). CZ-6 R/B can be tracked NOW for your location showing map with azimuth and elevation plus other details from your city location.

Track the satellite on the map from your city or location and see movement details for azimuth, elevation, latitude, longitude, range, height, and movement on the map or in text.







IsCatalogInMostPopularTable: catalog: 46841, numindb: 5
Update: records affected: 1



GetName: 46841 CZ-6 R/B

Hit Count: updated at: Tue, 24 Nov 2020 11:28:41 GMT